Location: Albany
(35.0000°S, 118.0000°E)
Time: 23:15:52
(UTC-04:00)

JAS-1B - Visible Passes

Search period start: 19 April 2014 00:00
Search period end: 29 April 2014 00:00
Orbit: 911 x 1745 km, 99.0° (Epoch: 19 April)

Date Brightness Start Highest point End Pass type
(mag) Time Alt. Az. Time Alt. Az. Time Alt. Az.
19 Apr 9.5 14:29:12 21° SSE 14:29:12 21° SSE 14:32:12 10° S visible
19 Apr 9.4 16:21:28 15° SSW 16:21:28 15° SSW 16:22:51 10° SSW visible
20 Apr 10.2 05:47:41 10° S 05:55:17 26° WSW 06:02:41 10° WNW visible
20 Apr 9.4 14:48:44 22° S 14:48:44 22° S 14:51:39 10° S visible
20 Apr 9.6 16:41:01 12° SW 16:41:01 12° SW 16:41:29 10° SSW visible
21 Apr 10.3 06:07:31 10° SSW 06:13:55 20° SW 06:20:12 10° W visible
21 Apr 10.2 13:16:01 11° SE 13:16:01 11° SE 13:16:38 10° SSE visible
21 Apr 9.4 15:08:17 22° S 15:08:17 22° S 15:10:57 10° S visible
22 Apr 10.4 06:27:45 10° SSW 06:32:29 15° SW 06:37:08 10° W visible
22 Apr 10.0 13:35:33 14° SSE 13:35:33 14° SSE 13:37:25 10° SSE visible
22 Apr 9.4 15:27:49 20° SSW 15:27:49 20° SSW 15:30:09 10° SSW visible
23 Apr 10.7 06:49:32 10° SW 06:50:57 10° SW 06:52:21 10° WSW visible
23 Apr 9.9 13:55:06 16° SSE 13:55:06 16° SSE 13:57:25 10° S visible
23 Apr 9.5 15:47:23 18° SSW 15:47:23 18° SSW 15:49:13 10° SSW visible
24 Apr 9.8 14:14:40 18° SSE 14:14:40 18° SSE 14:17:06 10° S visible
24 Apr 9.6 16:06:56 15° SSW 16:06:56 15° SSW 16:08:10 10° SSW visible
25 Apr 9.7 14:34:13 19° S 14:34:13 19° S 14:36:37 10° S visible
25 Apr 9.7 16:26:30 12° SSW 16:26:30 12° SSW 16:26:57 10° SSW visible
26 Apr 10.2 05:52:07 10° SSW 05:59:10 23° WSW 06:05:53 10° WNW visible
26 Apr 9.7 14:53:47 19° S 14:53:47 19° S 14:55:59 10° S visible
27 Apr 10.3 06:12:07 10° SSW 06:17:45 17° SW 06:23:11 10° W visible
27 Apr 10.2 13:21:05 12° SSE 13:21:05 12° SSE 13:22:00 10° SSE visible
27 Apr 9.7 15:13:22 18° S 15:13:22 18° S 15:15:15 10° S visible
28 Apr 10.5 06:32:46 10° SSW 06:36:15 12° SW 06:39:39 10° WSW visible
28 Apr 10.1 13:40:40 14° SSE 13:40:40 14° SSE 13:42:12 10° SSE visible
28 Apr 9.7 15:32:57 16° SSW 15:32:57 16° SSW 15:34:24 10° SSW visible
